www.pogodaiklimat.ru

Погода и климат >> Архив погоды >> Бразилия >> Мараньян >> Туриасу


ПОГОДА в Туриасу

  • Прогноз погоды в Туриасу
  • Монитор погоды в Туриасу

АРХИВ ПОГОДЫ в Туриасу

Время (UTC), дата Ветер
(напр.,м/с)
 
Видим.   Явления Облачность Т
(С)
Тd
(С)
f
(%)
Тe
(С)
Тes
(С)
Комфортность P
(гПа)
Po
(гПа)
Тmin
(С)
Tmax
(С)
R
(мм)
R24
(мм)
S
(см)
01 16.05 В 1
{2}
н/о н/о +26.3 +24.5 90 +37 +37 очень
душно
1011.6 1007.5
02 16.05 СВ 1
{2}
н/о н/о +26.1 +24.4 90 +36 +36 очень
душно
1011.9 1007.8
03 16.05 штиль 0
{1}
н/о н/о +25.5 +24.2 93 +35 +35 очень
душно
1011.4 1007.3
04 16.05 штиль 0
{1}
н/о н/о +25.6 +24.6 94 +36 +36 очень
душно
1010.7 1006.6
05 16.05 СВ 1
{2}
н/о н/о +25.3 +24.2 94 +35 +35 очень
душно
1009.9 1005.8
06 16.05 штиль 0
{1}
н/о н/о +24.9 +24.2 96 +34 +34 очень
душно
1009.8 1005.7
07 16.05 штиль 0
{1}
н/о н/о +25.1 +24.5 96 +35 +35 очень
душно
1009.4 1005.3
08 16.05 штиль 0
{1}
н/о н/о +24.9 +24.2 96 +34 +34 очень
душно
1009.8 1005.7
09 16.05 З 1
{1}
н/о н/о +24.1 +23.5 96 +32 +32 очень
душно
1010.6 1006.4
10 16.05 ЮЗ 1
{1}
н/о н/о +24.4 +23.8 96 +33 +33 очень
душно
1011.0 1006.8
11 16.05 З 1
{1}
н/о н/о +25.9 +25.3 96 +37 +37 очень
душно
1011.7 1007.6
12 16.05 В 1
{3}
н/о н/о +27.3 +22.8 76 +36 +36 очень
душно
1012.2 1008.1 0.2
13 16.05 СВ 1
{3}
н/о н/о +27.8 +22.5 73 +37 +37 очень
душно
1012.2 1008.1
14 16.05 С 1
{3}
н/о н/о +30.1 +24.0 70 +42 +42 опасность
перегрева
1011.6 1007.5
15 16.05 СВ 2
{4}
н/о н/о +30.5 +23.3 65 +41 +41 опасность
перегрева
1010.9 1006.8
16 16.05 СВ 1
{6}
н/о н/о +26.5 +25.5 94 +39 +39 очень
душно
1010.7 1006.6 4
17 16.05 СВ 1
{2}
н/о н/о +27.1 +24.9 88 +39 +39 очень
душно
1009.6 1005.5
18 16.05 В 2
{5}
н/о н/о +26.4 +25.2 93 +38 +38 очень
душно
1008.9 1004.8 2
19 16.05 С 2
{5}
н/о н/о +25.2 +24.2 94 +35 +35 очень
душно
1008.7 1004.6 4
20 16.05 С 1
{4}
н/о н/о +25.2 +23.9 93 +35 +35 очень
душно
1008.7 1004.6
21 16.05 СЗ 1
{2}
н/о н/о +25.5 +24.2 93 +35 +35 очень
душно
1009.4 1005.3
22 16.05 СВ 1
{1}
н/о н/о +25.9 +24.5 92 +36 +36 очень
душно
1010.2 1006.1
23 16.05 СВ 1
{1}
н/о н/о +25.9 +24.5 92 +36 +36 очень
душно
1011.0 1006.9
00 17.05 штиль 0
{1}
н/о н/о +25.7 +24.2 91 +36 +36 очень
душно
1011.7 1007.6
01 17.05 штиль 0 н/о н/о +25.4 +24.3 94 +35 +35 очень
душно
1012.2 1008.1
02 17.05 С 1
{1}
н/о н/о +25.2 +23.9 93 +35 +35 очень
душно
1012.0 1007.9
03 17.05 штиль 0
{1}
н/о н/о +25.2 +24.0 93 +35 +35 очень
душно
1011.6 1007.5
04 17.05 З 1
{1}
н/о н/о +24.4 +23.6 95 +33 +33 очень
душно
1011.3 1007.1
05 17.05 штиль 0
{1}
н/о н/о +24.8 +24.0 95 +34 +34 очень
душно
1010.3 1006.2
06 17.05 З 1
{1}
н/о н/о +24.2 +23.4 95 +32 +32 очень
душно
1010.0 1005.8
07 17.05 ЮЗ 1
{1}
н/о н/о +23.9 +23.3 96 +32 +32 очень
душно
1009.9 1005.7
08 17.05 ЮЗ 1
{2}
н/о н/о +23.8 +23.3 97 +32 +32 очень
душно
1010.3 1006.1
09 17.05 З 1
{1}
н/о н/о +23.6 +23.1 97 +31 +31 очень
душно
1010.6 1006.4
10 17.05 ЮЗ 1
{2}
н/о н/о +24.3 +23.8 97 +33 +33 очень
душно
1011.5 1007.3
11 17.05 Ю 1
{2}
н/о н/о +26.1 +25.5 97 +38 +38 очень
душно
1012.1 1008.0
12 17.05 Ю 1
{2}
н/о н/о +26.4 +23.9 86 +36 +36 очень
душно
1012.5 1008.4
13 17.05 ЮВ 1
{2}
н/о н/о +27.0 +22.9 78 +36 +36 очень
душно
1012.1 1008.0
14 17.05 Ю 1
{3}
н/о н/о +28.4 +22.5 70 +37 +37 очень
душно
1011.7 1007.6 0.2
15 17.05 Ю 2
{3}
н/о н/о +29.8 +22.5 65 +39 +39 очень
душно
1010.6 1006.5
16 17.05 В 2
{4}
н/о н/о +30.2 +25.1 74 +44 +44 опасность
перегрева
1009.5 1005.4
17 17.05 В 2
{4}
н/о н/о +28.4 +24.5 79 +40 +40 очень
душно
1008.7 1004.6
18 17.05 З 1
{5}
н/о н/о +26.0 +24.7 93 +37 +37 очень
душно
1008.8 1004.7 2
19 17.05 С 1
{1}
н/о н/о +25.6 +24.7 95 +36 +36 очень
душно
1008.5 1004.4
20 17.05 В 1
{2}
н/о н/о +25.8 +25.0 95 +37 +37 очень
душно
1009.0 1004.9 0.2
21 17.05 СВ 1
{2}
н/о н/о +25.1 +24.2 95 +35 +35 очень
душно
1009.2 1005.1
22 17.05 СВ 1
{1}
н/о н/о +25.1 +24.2 95 +35 +35 очень
душно
1009.5 1005.4
23 17.05 ЮЗ 1
{1}
н/о н/о +25.2 +24.5 96 +35 +35 очень
душно
1010.7 1006.6
01 18.05 ЮЗ 1
{2}
н/о н/о +24.5 +23.8 96 +33 +33 очень
душно
1011.9 1007.7
02 18.05 штиль 0
{2}
н/о н/о +24.3 +23.7 96 +33 +33 очень
душно
1011.6 1007.4
03 18.05 ЮЗ 1
{1}
н/о н/о +24.2 +23.6 96 +33 +33 очень
душно
1011.1 1006.9
04 18.05 ЮЗ 1
{2}
н/о н/о +23.8 +23.1 96 +32 +32 очень
душно
1010.7 1006.5
05 18.05 ЮЗ 1
{1}
н/о н/о +23.8 +23.0 95 +32 +32 очень
душно
1009.8 1005.6
06 18.05 СЗ 1
{1}
н/о н/о +23.5 +22.9 96 +31 +31 очень
душно
1008.9 1004.7
07 18.05 З 1
{1}
н/о н/о +23.3 +22.8 97 +32 +32 очень
душно
1009.4 1005.2
08 18.05 Ю 1
{1}
н/о н/о +23.8 +23.2 96 +32 +32 очень
душно
1009.8 1005.6
09 18.05 З 1
{1}
н/о н/о +23.4 +22.8 96 +33 +33 очень
душно
1009.8 1005.6
10 18.05 Ю 1
{1}
н/о н/о +24.7 +24.1 96 +34 +34 очень
душно
1010.7 1006.5
11 18.05 ЮВ 1
{1}
н/о н/о +25.6 +24.6 94 +36 +36 очень
душно
1011.6 1007.5
12 18.05 ЮВ 1
{2}
н/о н/о +26.2 +22.4 80 +34 +34 очень
душно
1011.9 1007.8
13 18.05 ЮВ 1
{2}
н/о н/о +26.7 +22.7 79 +35 +35 очень
душно
1012.1 1008.0
14 18.05 Ю 1
{2}
н/о н/о +28.1 +22.8 73 +37 +37 очень
душно
1011.4 1007.3 0.2
15 18.05 СВ 2
{4}
н/о н/о +26.9 +25.4 92 +39 +39 очень
душно
1011.0 1006.9
16 18.05 СВ 2
{4}
н/о н/о +27.1 +24.3 85 +38 +38 очень
душно
1010.1 1006.0
17 18.05 СВ 2
{4}
н/о н/о +28.2 +23.7 77 +39 +39 очень
душно
1008.9 1004.8
18 18.05 СВ 2
{4}
н/о н/о +27.4 +24.0 82 +38 +38 очень
душно
1008.7 1004.6
19 18.05 З 1
{4}
н/о н/о +26.4 +24.8 91 +38 +38 очень
душно
1008.7 1004.6
20 18.05 СВ 1
{2}
н/о н/о +26.3 +24.6 90 +37 +37 очень
душно
1008.7 1004.6
21 18.05 В 1
{2}
н/о н/о +26.0 +24.0 89 +36 +36 очень
душно
1009.0 1004.9
22 18.05 В 1
{3}
н/о н/о +26.0 +24.0 89 +36 +36 очень
душно
1009.5 1005.4
23 18.05 СВ 1
{3}
н/о н/о +25.9 +24.2 90 +36 +36 очень
душно
1009.7 1005.6
01 19.05 В 1
{3}
н/о н/о +25.7 +24.2 91 +36 +36 очень
душно
1010.5 1006.4
02 19.05 СВ 1
{2}
н/о н/о +25.6 +24.3 93 +36 +36 очень
душно
1011.0 1006.9
03 19.05 В 1
{2}
н/о н/о +25.7 +24.5 93 +36 +36 очень
душно
1010.6 1006.5
04 19.05 В 1
{2}
н/о н/о +25.6 +24.4 93 +36 +36 очень
душно
1010.0 1005.9
05 19.05 СВ 1
{2}
н/о н/о +25.6 +24.5 94 +36 +36 очень
душно
1008.9 1004.8
06 19.05 В 1
{2}
н/о н/о +25.5 +24.4 94 +36 +36 очень
душно
1008.8 1004.7
07 19.05 СВ 1
{2}
н/о н/о +25.5 +24.5 94 +36 +36 очень
душно
1008.4 1004.3
08 19.05 В 1
{2}
н/о н/о +25.4 +24.6 95 +36 +36 очень
душно
1009.3 1005.2
09 19.05 В 1
{2}
н/о н/о +25.5 +24.6 95 +36 +36 очень
душно
1009.6 1005.5
10 19.05 СВ 2
{3}
н/о н/о +25.9 +24.5 92 +36 +36 очень
душно
1010.0 1005.9
11 19.05 В 1
{4}
н/о н/о +25.6 +23.5 88 +35 +35 очень
душно
1010.8 1006.7 0.2
12 19.05 СВ 1
{4}
н/о н/о +25.4 +23.8 91 +35 +35 очень
душно
1011.7 1007.6 0.6
13 19.05 В 1
{3}
н/о н/о +25.4 +24.2 93 +35 +35 очень
душно
1012.1 1008.0 1
14 19.05 Ю 1
{3}
н/о н/о +25.4 +24.6 95 +36 +36 очень
душно
1011.8 1007.7 2
15 19.05 штиль 0
{1}
н/о н/о +26.0 +25.2 95 +37 +37 очень
душно
1011.4 1007.3
16 19.05 В 1
{5}
н/о н/о +25.2 +24.1 94 +35 +35 очень
душно
1010.6 1006.5 0.2
17 19.05 штиль 0
{2}
н/о н/о +25.9 +23.9 89 +36 +36 очень
душно
1009.6 1005.5
18 19.05 СВ 1
{2}
н/о н/о +26.4 +24.1 87 +37 +37 очень
душно
1008.4 1004.3
19 19.05 СВ 1
{3}
н/о н/о +26.8 +24.3 86 +37 +37 очень
душно
1008.4 1004.3
20 19.05 В 1
{7}
н/о н/о +25.5 +24.8 96 +36 +36 очень
душно
1008.2 1004.1 4
21 19.05 штиль 0
{2}
н/о н/о +25.4 +24.7 96 +36 +36 очень
душно
1008.8 1004.7
22 19.05 В 1
{1}
н/о н/о +25.6 +24.9 96 +36 +36 очень
душно
1009.4 1005.3
23 19.05 В 1
{1}
н/о н/о +25.8 +25.1 96 +37 +37 очень
душно
1009.7 1005.6
00 20.05 В 1
{2}
н/о н/о +25.7 +25.0 96 +37 +37 очень
душно
1010.1 1006.0
01 20.05 В 1
{2}
н/о н/о +25.9 +25.1 95 +37 +37 очень
душно
1011.0 1006.9
02 20.05 СВ 1
{2}
н/о н/о +25.8 +24.9 95 +37 +37 очень
душно
1010.9 1006.8
03 20.05 СВ 2
{3}
н/о н/о +25.7 +24.5 93 +36 +36 очень
душно
1010.3 1006.2
04 20.05 СВ 2
{3}
н/о н/о +25.5 +24.1 92 +35 +35 очень
душно
1009.4 1005.3
05 20.05 В 1
{3}
н/о н/о +25.5 +24.2 93 +35 +35 очень
душно
1008.9 1004.8
06 20.05 СВ 1
{2}
н/о н/о +25.2 +24.1 94 +35 +35 очень
душно
1008.7 1004.6
07 20.05 штиль 0
{1}
н/о н/о +25.2 +24.2 94 +35 +35 очень
душно
1008.6 1004.5
08 20.05 ЮВ 1
{1}
н/о н/о +25.4 +24.4 94 +35 +35 очень
душно
1008.8 1004.7
09 20.05 штиль 0
{1}
н/о н/о +25.4 +24.2 93 +35 +35 очень
душно
1008.9 1004.8
10 20.05 штиль 0
{1}
н/о н/о +26.0 +25.0 94 +37 +37 очень
душно
1009.7 1005.6
11 20.05 В 1
{1}
н/о н/о +26.3 +24.5 90 +37 +37 очень
душно
1010.7 1006.6 0.2
12 20.05 ЮВ 1
{2}
н/о н/о +27.3 +25.0 87 +39 +39 очень
душно
1011.3 1007.2 0.8
13 20.05 ЮВ 2
{5}
н/о н/о +24.6 +24.0 96 +34 +34 очень
душно
1011.8 1007.6 14
14 20.05 ЮВ 2
{3}
н/о н/о +25.6 +24.4 93 +36 +36 очень
душно
1011.2 1007.1
15 20.05 ЮВ 2
{4}
н/о н/о +26.6 +22.6 79 +35 +35 очень
душно
1010.2 1006.1
16 20.05 ЮВ 2
{4}
н/о н/о +27.6 +22.8 75 +37 +37 очень
душно
1009.0 1004.9
17 20.05 СВ 1
{6}
н/о н/о +25.4 +24.6 95 +36 +36 очень
душно
1009.0 1004.9 12
18 20.05 В 1
{2}
н/о н/о +26.1 +24.6 91 +37 +37 очень
душно
1008.4 1004.3
19 20.05 СВ 1
{2}
н/о н/о +26.8 +24.3 86 +37 +37 очень
душно
1008.2 1004.1
20 20.05 СВ 1
{2}
н/о н/о +26.3 +24.6 90 +37 +37 очень
душно
1008.4 1004.3
21 20.05 СВ 2
{3}
н/о н/о +26.1 +24.9 93 +37 +37 очень
душно
1008.3 1004.2
22 20.05 СВ 1
{3}
н/о н/о +25.7 +24.7 94 +36 +36 очень
душно
1008.7 1004.6
23 20.05 штиль 0
{2}
н/о н/о +25.6 +24.7 95 +36 +36 очень
душно
1009.5 1005.4
00 21.05 СВ 1
{2}
н/о н/о +25.5 +24.3 93 +35 +35 очень
душно
1010.2 1006.1
01 21.05 СВ 1
{2}
н/о н/о +25.3 +24.2 94 +35 +35 очень
душно
1010.7 1006.6
02 21.05 штиль 0
{1}
н/о н/о +25.3 +24.3 94 +35 +35 очень
душно
1011.0 1006.9
03 21.05 С 1
{1}
н/о н/о +25.2 +24.4 95 +35 +35 очень
душно
1010.9 1006.8 0.4
04 21.05 В 1
{2}
н/о н/о +24.8 +23.9 95 +34 +34 очень
душно
1010.0 1005.9
05 21.05 СВ 2
{3}
н/о н/о +25.3 +24.5 95 +35 +35 очень
душно
1009.7 1005.6 0.6
06 21.05 СВ 1
{3}
н/о н/о +24.8 +23.9 95 +34 +34 очень
душно
1009.0 1004.9 0.4
07 21.05 В 1
{2}
н/о н/о +24.7 +23.9 95 +34 +34 очень
душно
1008.7 1004.6
08 21.05 В 1
{2}
н/о н/о +24.8 +24.0 95 +34 +34 очень
душно
1009.0 1004.9
09 21.05 СВ 1
{2}
н/о н/о +24.9 +24.2 96 +34 +34 очень
душно
1009.1 1005.0
10 21.05 В 1
{2}
н/о н/о +25.7 +24.4 93 +36 +36 очень
душно
1009.3 1005.2
11 21.05 В 1
{2}
н/о н/о +26.8 +24.0 85 +37 +37 очень
душно
1010.5 1006.4
12 21.05 В 1
{2}
н/о н/о +27.1 +23.5 81 +37 +37 очень
душно
1010.9 1006.8
13 21.05 В 1
{2}
н/о н/о +28.6 +24.4 78 +40 +40 очень
душно
1010.9 1006.8
14 21.05 В 1
{3}
н/о н/о +28.8 +24.1 76 +40 +40 очень
душно
1010.7 1006.6
15 21.05 В 1
{4}
н/о н/о +29.9 +23.8 70 +41 +41 опасность
перегрева
1010.0 1005.9
16 21.05 В 1
{4}
н/о н/о +30.4 +24.6 71 +43 +43 опасность
перегрева
1009.1 1005.0
17 21.05 СВ 3
{4}
н/о н/о +29.8 +24.4 73 +42 +42 опасность
перегрева
1008.0 1003.9
18 21.05 СВ 2
{4}
н/о н/о +29.2 +24.4 75 +41 +41 опасность
перегрева
1007.6 1003.5
19 21.05 СВ 1
{3}
н/о н/о +29.9 +24.2 72 +42 +42 опасность
перегрева
1007.4 1003.3
20 21.05 СВ 1
{3}
н/о н/о +28.6 +24.6 79 +41 +41 опасность
перегрева
1007.6 1003.5
21 21.05 В 1
{3}
н/о н/о +27.6 +24.5 83 +39 +39 очень
душно
1008.4 1004.3
22 21.05 СВ 1
{2}
н/о н/о +27.0 +24.5 86 +38 +38 очень
душно
1009.0 1004.9
23 21.05 СВ 1
{2}
н/о н/о +26.5 +24.4 88 +37 +37 очень
душно
1009.7 1005.6
01 22.05 СВ 1
{2}
н/о н/о +26.1 +24.4 90 +36 +36 очень
душно
1010.6 1006.5
02 22.05 В 1
{2}
н/о н/о +26.1 +24.7 92 +37 +37 очень
душно
1011.0 1006.9
03 22.05 В 1
{2}
н/о н/о +26.3 +25.0 93 +38 +38 очень
душно
1010.9 1006.8
04 22.05 СВ 1
{2}
н/о н/о +26.1 +24.7 92 +37 +37 очень
душно
1010.6 1006.5
05 22.05 В 1
{1}
н/о н/о +26.0 +24.8 93 +37 +37 очень
душно
1009.7 1005.6
06 22.05 штиль 0
{1}
н/о н/о +25.2 +24.4 95 +35 +35 очень
душно
1009.2 1005.1
07 22.05 ЮВ 1
{1}
н/о н/о +25.7 +25.0 96 +37 +37 очень
душно
1009.0 1004.9
08 22.05 З 1
{1}
н/о н/о +24.4 +23.7 96 +33 +33 очень
душно
1008.9 1004.8
09 22.05 ЮЗ 1
{1}
н/о н/о +24.8 +24.2 96 +34 +34 очень
душно
1009.4 1005.3
10 22.05 штиль 0
{1}
н/о н/о +25.1 +24.5 96 +35 +35 очень
душно
1009.9 1005.8
11 22.05 штиль 0
{1}
н/о н/о +26.6 +25.9 96 +40 +40 очень
душно
1010.9 1006.8
12 22.05 СВ 1
{2}
н/о н/о +26.7 +25.0 90 +38 +38 очень
душно
1011.5 1007.4
13 22.05 В 3
{6}
н/о н/о +23.9 +23.0 95 +32 +32 очень
душно
1012.6 1008.4 3
14 22.05 ЮВ 2
{6}
н/о н/о +23.5 +22.6 95 +31 +31 очень
душно
1012.5 1008.3 2
15 22.05 Ю 1
{3}
н/о н/о +23.8 +22.6 93 +31 +31 очень
душно
1012.3 1008.1 0.8
16 22.05 Ю 1
{2}
н/о н/о +24.4 +22.1 87 +32 +32 очень
душно
1011.0 1006.8
17 22.05 Ю 1
{2}
н/о н/о +25.3 +21.7 80 +32 +32 очень
душно
1010.3 1006.2
18 22.05 ЮВ 1
{2}
н/о н/о +25.6 +22.2 82 +33 +33 очень
душно
1009.4 1005.3 0.2
19 22.05 В 1
{3}
н/о н/о +25.8 +22.7 83 +34 +34 очень
душно
1009.4 1005.3
20 22.05 В 1
{2}
н/о н/о +25.8 +23.0 85 +34 +34 очень
душно
1009.2 1005.1
21 22.05 В 1
{2}
н/о н/о +25.6 +23.6 89 +35 +35 очень
душно
1009.5 1005.4
22 22.05 В 1
{2}
н/о н/о +25.4 +23.5 89 +34 +34 очень
душно
1009.8 1005.7
23 22.05 В 1
{1}
н/о н/о +25.3 +23.9 92 +35 +35 очень
душно
1010.6 1006.5
00 23.05 СВ 1
{2}
н/о н/о +25.3 +24.1 93 +35 +35 очень
душно
1011.0 1006.9
01 23.05 В 1
{2}
н/о н/о +25.3 +24.2 94 +35 +35 очень
душно
1011.4 1007.3
02 23.05 В 1
{2}
н/о н/о +25.1 +24.2 95 +35 +35 очень
душно
1011.5 1007.4

 

Местоположение метеостанции Туриасу (Мараньян, Бразилия): широта -1.67 долгота -45.37 высота над уровнем моря 43 м.

В архиве по умолчанию представлена погода в Туриасу за последнюю неделю. Архивные данные за месяц целиком и за предыдущие месяцы, начиная с января 2011 года, Вы можете получить, выбрав интересующий диапазон дат из раскрывающегося списка и нажав кнопку "Ввод!".


*Определитесь, кто Вы:
робот инопланетянин человек

Внимание! Время в таблицах - всемирное. Для получения местного времени необходимо прибавить поправку, которая равна -3 ч.

Смотрите также архив погоды в соседних городах и на ближайших метеорологических станциях:

Погода в Туриасу (Мараньян, Бразилия) (6 км)
Погода в Сан-Луисе (Мараньян, Бразилия) (160 км)
Погода в Сан-Луисе (Мараньян, Бразилия) (164 км)
Погода в Брагансе (Пара, Бразилия) (171 км)
Погода в Тракуатеуа (Пара, Бразилия) (185 км)
Погода в Капитан-Посу (Пара, Бразилия) (188 км)
Погода в Сантане (Амапа, Бразилия) (206 км)
Погода на Прегуике (Мараньян, Бразилия) (212 км)
Погода в Салинополисе (Пара, Бразилия) (249 км)
Погода в Салинополисе (Пара, Бразилия) (252 км)

Пояснения к столбцам:

Ветер - указаны скорость ветра в м/с - средняя за 10 мин, порывы в срок и между сроками (в фигурных скобках) и направление, откуда дует ветер: С - северный, СВ - северо-восточный, В - восточный, ЮВ - юго-восточный, Ю - южный, ЮЗ - юго-западный, З - западный, СЗ - северо-западный.
Видимость - горизонтальная дальность видимости в метрах или километрах. При видимости от 1 до 10 км при отсутствии осадков обычно наблюдается дымка, при ухудшении видимости до 1 км и менее - туман. В сухую погоду видимость может ухудшаться дымом, пылью или мглою.
Явления - указаны атмосферные явления, наблюдавшиеся в срок или в последний час перед сроком; фигурными скобками обозначены явления, наблюдавшиеся между сроками (за 1-3 часа до срока); квадратными скобками обозначены град или гололедные отложения с указанием их диаметра в мм.
Облачность - указаны через наклонную черту общая и нижняя облачность в баллах и высота нижней границы облаков в метрах; квадратными скобками обозначены формы облаков: Ci - перистые, Cs - перисто-слоистые, Cc - перисто-кучевые, Ac - высококучевые, As - высокослоистые, Sc - слоисто-кучевые, Ns - слоисто-дождевые, Cu - кучевые, Cb - кучево-дождевые. Подробнее классификацию облаков см. в Атласе облаков (PDF).
T - Температура воздуха - температура, измеренная на высоте 2 м над землей.
Td - Температура точки росы - температура, при понижении до которой содержащийся в воздухе водяной пар достигнет насыщения.
f - Относительная влажность воздуха - влажноcть воздуха, измеренная на высоте 2 м над землей.
Te - Эффективная температура - температура, которую ощущает одетый по сезону человек в тени. Характеристика душности погоды. При расчете учитывается влияние влажности воздуха и скорости ветра на теплоощущения человека.
Tes - Эффективная температура на солнце - температура, которую ощущает человек, с поправкой на солнечный нагрев. Характеристика знойности погоды. Зависит от высоты солнца над горизонтом, облачности и скорости ветра. Ночью, в пасмурную погоду, а также при ветре 12 м/с и более поправка равна нулю.
P - Атмосферное давление - приведенное к уровню моря атмосферное давление.
Po - Атмосферное давление - измеренное на уровне метеостанции атмосферное давление.
Tmin - Минимальная температура - минимум температуры воздуха на высоте 2 м над землей.
Tmax - Максимальная температура - максимум температуры воздуха на высоте 2 м над землей.
R - Количество осадков - Количество выпавших осадков за период времени, мм. При наведении курсора мыши на число - период времени, за который выпало указанное количество осадков.
R24 - Количество осадков - Количество выпавших осадков за 24 часа, мм.
S - Снежный покров - Высота снежного покрова, см. При наведении курсора мыши на число - состояние снежного покрова и степень покрытия местности в баллах.